Regional Weather Roundup
Issued by NWS

Home | Current Version | Previous Version | Text Only | Print | Product List | Glossary Off
Versions: 1 2 3 4 5 6 7 8 9 10 11 12 13 14 15 16 17 18 19 20 21 22 23 24 25 26 27 28 29 30 31 32 33 34 35 36 37 38 39 40 41 42 43 44 45 46 47 48 49 50

209
ASUS43 KLMK 280302
RWRKY
KENTUCKY REGIONAL WEATHER ROUNDUP
NATIONAL WEATHER SERVICE LOUISVILLE KY
1100 PM EDT SAT MAY 27 2017

NOTE "FAIR" INDICATES FEW OR NO CLOUDS BELOW 12,000 FEET
WITH NO SIGNIFICANT WEATHER AND/OR OBSTRUCTIONS TO VISIBILITY.

KYZ001>023-026-027-061>063-070>075-280400-
WESTERN AND SOUTH CENTRAL KENTUCKY

CITY           SKY/WX    TMP DP  RH WIND       PRES   REMARKS
PADUCAH        CLOUDY    64  61  90 SW7       29.87F THUNDER
HENDERSON      CLOUDY    68  61  78 CALM      29.85F
OWENSBORO      CLOUDY    69  62  78 NW5       29.84F
HOPKINSVILLE   DRIZZLE   64  64  99 NW3       29.95R
BOWLING GREEN  CLOUDY    66  64  93 SE7       29.88F
GLASGOW        NOT AVBL
$$

KYZ024-025-028>034-038-045-046-053-280400-
NORTH CENTRAL KENTUCKY

CITY           SKY/WX    TMP DP  RH WIND       PRES   REMARKS
LOUISVILLE/SDF CLOUDY    68  64  87 S5        29.87R
LOUISVILLE/LOU MOCLDY    68  65  90 S6        29.88R
FORT KNOX      CLOUDY    65  62  90 CALM      29.86R
$$

KYZ035>037-039>044-047>052-055>060-089>105-280400-
NORTHEAST KENTUCKY

CITY           SKY/WX    TMP DP  RH WIND       PRES   REMARKS
LEXINGTON      CLOUDY    67  61  81 CALM      29.92F
COVINGTON      CLOUDY    72  66  81 S14       29.85R
FRANKFORT      CLOUDY    66  62  87 S9        29.87F
$$

KYZ054-064>069-076>088-106>120-280400-
SOUTHEAST KENTUCKY

CITY           SKY/WX    TMP DP  RH WIND       PRES   REMARKS
JACKSON        CLOUDY    64  63  96 CALM      29.94R
LONDON         NOT AVBL
SOMERSET       LGT RAIN  61  61 100 S3        29.95F
MIDDLESBORO    HVY RAIN  64  62  93 CALM      30.00R
MONTICELLO     LGT RAIN  64  63  96 NW9       29.98F
$$





USA.gov is the U.S. government's official web portal to all federal, state and local government web resources and services.